This is the latest recevied weather packets stored in our database for station/object KQ4OSL. If no packets are shown the sender has not sent any weather packets the latest 10 day(s).
| Time | Temp. | Humidity | Pressure | Rain* | Wind** | Luminosity | Snow |
|---|---|---|---|---|---|---|---|
| 1787691795 | 32.22° C | 48% | 1018.4 hPa | 0 mm | - | 370 W/m² | - |
| 1787691494 | 32.78° C | 44% | 1018.4 hPa | 0 mm | - | 386 W/m² | - |
| 1787691193 | 31.67° C | 48% | 1018.3 hPa | 0 mm | - | 400 W/m² | - |
| 1787690889 | 31.67° C | 47% | 1018.4 hPa | 0 mm | - | 414 W/m² | - |
| 1787690589 | 31.67° C | 47% | 1018.4 hPa | 0 mm | - | 429 W/m² | - |
| 1787690284 | 31.67° C | 46% | 1018.3 hPa | 0 mm | - | 444 W/m² | - |
| 1787689981 | 32.22° C | 47% | 1018.4 hPa | 0 mm | - | 453 W/m² | - |
| 1787689675 | 31.67° C | 48% | 1018.6 hPa | 0 mm | - | 472 W/m² | - |
| 1787689371 | 31.67° C | 48% | 1018.6 hPa | 0 mm | - | 481 W/m² | - |
| 1787689070 | 31.67° C | 52% | 1018.6 hPa | 0 mm | - | 495 W/m² | - |
| 1787688767 | 31.67° C | 48% | 1018.5 hPa | 0 mm | - | 510 W/m² | - |
| 1787688462 | 32.78° C | 49% | 1018.8 hPa | 0 mm | - | 523 W/m² | - |
| 1787688157 | 32.22° C | 52% | 1018.8 hPa | 0 mm | - | 534 W/m² | - |
| 1787687853 | 32.78° C | 46% | 1018.8 hPa | 0 mm | - | 546 W/m² | - |
| 1787687552 | 31.67° C | 46% | 1018.8 hPa | 0 mm | - | 555 W/m² | - |
| 1787687248 | 31.67° C | 46% | 1019 hPa | 0 mm | - | 570 W/m² | - |
| 1787686944 | 31.67° C | 46% | 1019 hPa | 0 mm | - | 584 W/m² | - |
| 1787686641 | 32.22° C | 45% | 1018.9 hPa | 0 mm | - | 597 W/m² | - |
| 1787686340 | 31.67° C | 45% | 1018.8 hPa | 0 mm | - | 608 W/m² | - |
| 1787686036 | 31.67° C | 45% | 1018.9 hPa | 0 mm | - | 613 W/m² | - |
| 1787685731 | 31.67° C | 51% | 1019.1 hPa | 0 mm | - | 623 W/m² | - |
| 1787685431 | 31.67° C | 46% | 1018.9 hPa | 0 mm | - | 633 W/m² | - |
| 1787685125 | 31.67° C | 49% | 1018.9 hPa | 0 mm | - | 642 W/m² | - |
| 1787684821 | 31.11° C | 50% | 1019.1 hPa | 0 mm | - | 649 W/m² | - |
| 1787684520 | 31.67° C | 51% | 1019.2 hPa | 0 mm | - | 664 W/m² | - |
* Rain latest hour (hover to see other rain measurements)
** Current wind speed in m/s (hover to see current wind gust speed)